Regional Weather Roundup
Issued by NWS

Home | Current Version | Previous Version | Graphics & Text | Print | Product List | Glossary On
Versions: 1 2 3 4 5 6 7 8 9 10 11 12 13 14 15 16 17 18 19 20 21 22 23 24 25 26 27 28 29 30 31 32 33 34 35 36 37 38 39 40 41 42 43 44 45 46 47 48 49 50
855
ASUS43 KOAX 241602
RWRNE

WEATHER ROUNDUP FOR NEBRASKA
NATIONAL WEATHER SERVICE OMAHA NE
1000 AM CST TUE JAN 24 2017

NOTES: SATELLITE DATA IS BEING USED TO AUGMENT CLOUD COVER ABOVE
       12000 FEET.
       "FAIR" INDICATES FEW OR NO CLOUDS BELOW 12,000 FEET WITH NO
       SIGNIFICANT WEATHER AND/OR OBSTRUCTIONS TO VISIBILITY.

  * THESE STATIONS DO NOT REPORT WEATHER SUCH AS RAIN...SNOW OR FOG.

NEZ001>004-019>022-054>056-241700-
NEBRASKA PANHANDLE

CITY           SKY/WX    TMP DP  RH WIND       PRES   REMARKS
SCOTTSBLUFF    HAZE      22  17  81 N21       29.66R VSB 1/4 WCI   6
ALLIANCE       FOG       21  19  92 N17       29.63R VSB 1/4 WCI   7
CHADRON        FOG       21  18  88 N16       29.73R VSB 3/4 WCI   7
KIMBALL        SNOW      22  21  98 N15       29.61R VSB 1/4 WCI   8
SIDNEY         LGT SNOW  22  19  89 N21       29.59R VSB 1   WCI   6
$$

NEZ057>060-069>072-079>082-241700-
SOUTHWEST NEBRASKA

CITY           SKY/WX    TMP DP  RH WIND       PRES   REMARKS
NORTH PLATTE   SNOW      31  30  96 E12       29.54S VSB 1/4 WCI  22
IMPERIAL       FOG       30  29  96 N17       29.53S VSB 1   WCI  18
LEXINGTON      LGT SNOW  32  30  93 E10       29.55S WCI  24
MCCOOK         CLOUDY    32  31  96 NE15      29.48F FOG     WCI  22
OGALLALA       MIX PCPN  31  31  97 NE9       29.57R WCI  23
$$

NEZ005>010-023>029-035>040-094-241700-
NORTH CENTRAL NEBRASKA

CITY           SKY/WX    TMP DP  RH WIND       PRES   REMARKS
VALENTINE      SNOW      29  26  89 N8        29.65R VSB 1/2 WCI  21
AINSWORTH      LGT SNOW  29  29 100 NE10      29.62S WCI  19
BROKEN BOW     CLOUDY    31  30  96 E13G22    29.56R FOG     WCI  21
O`NEILL        SNOW      30  30 100 E12       29.66F VSB 1/2 WCI  21
ORD            CLOUDY    32  29  88 E16       29.58F FOG     WCI  21
THEDFORD       LGT SNOW  30  29  99 NE6       29.59R VSB 1   WCI  24
$$

NEZ041-046>049-061>064-073>077-083>087-241700-
SOUTH CENTRAL NEBRASKA

CITY           SKY/WX    TMP DP  RH WIND       PRES   REMARKS
GRAND ISLAND   CLOUDY    30  30 100 E18G28    29.57F FOG     WCI  18
AURORA         CLOUDY    31  31 100 E21G28    29.57F FOG     WCI  18
HASTINGS       CLOUDY    31  29  92 E20G26    29.54F FOG     WCI  19
HEBRON         CLOUDY    32  31  94 E18G25    29.54F FOG     WCI  21
HOLDREGE       LGT SNOW  31  30  95 E14       29.52F WCI  21
KEARNEY *      CLOUDY    30  28  93 E13G21    29.56R WCI  20
YORK           MOSUNNY   32  32 100 E20G26    29.60F FOG     WCI  20
$$

NEZ011>018-030>034-042>045-241700-
NORTHEAST NEBRASKA

CITY           SKY/WX    TMP DP  RH WIND       PRES   REMARKS
NORFOLK        LGT SNOW  30  27  88 NE14      29.65F FOG     WCI  19
ALBION         CLOUDY    33  31  92 E17       29.63S FOG     WCI  22
BLAIR          CLOUDY    31  30  94 E17       29.70F FOG     WCI  20
FREMONT        CLOUDY    31  31  97 E18       29.69F WCI  20
TEKAMAH        CLOUDY    32  28  85 E14       29.74S FOG     WCI  22
$$

NEZ050>053-065>068-078-088>093-241700-
SOUTHEAST NEBRASKA

CITY           SKY/WX    TMP DP  RH WIND       PRES   REMARKS
LINCOLN        CLOUDY    32  29  88 E15G22    29.65F FOG     WCI  22
OMAHA EPPLEY   CLOUDY    32  27  81 E12       29.74S FOG     WCI  23
BEATRICE       CLOUDY    33  31  96 E16G23    29.59F FOG     WCI  22
FALLS CITY     CLOUDY    32  30  92 E15       29.68R WCI  22
NEBRASKA CITY  CLOUDY    32  31  97 E15       29.68F FOG     WCI  21
PLATTSMOUTH    CLOUDY    31  28  90 E20       29.68F FOG     WCI  19
$$

NEZ044-045-051>053-067-241700-
OMAHA AREA

CITY           SKY/WX    TMP DP  RH WIND       PRES   REMARKS
OMAHA EPPLEY   CLOUDY    32  27  81 E12       29.74S FOG     WCI  23
BLAIR          CLOUDY    31  30  94 E17       29.70F FOG     WCI  20
FREMONT        CLOUDY    31  31  97 E18       29.69F WCI  20
MILLARD        CLOUDY    33  31  90 E9G16     29.69F WCI  25
OFFUTT AFB     CLOUDY    32  32 100 NE14      29.70F WCI  22
PLATTSMOUTH    CLOUDY    31  28  90 E20       29.68F FOG     WCI  19
WAHOO          CLOUDY    31  29  93 E18       29.66F FOG     WCI  19
$$




USA.gov is the U.S. government's official web portal to all federal, state and local government web resources and services.